Flag for Germany Weather past 2 weeks in Dessau-Rosslau, Saxony-Anhalt, Germany

Now
50 °F

Clear.


Feels Like: 49 °F
Forecast: 51 / 72 °F
Wind: 3 mph from Southwest

Location: Leipzig-Schkeuditz

Current Time: Aug 21, 2014 at 3:01:33 AM

Latest Report: Aug 21, 2014 at 2:20 AM


Visibility: 10 mi

Pressure: 30.01 "Hg

Humidity: 88%

Dew point: 46 °F

Location of Dessau-RosslauLocation

Historic Weather in Dessau-Rosslau — Graph

°F

Dessau-Rosslau temperature yesterday

Maximum temperature yesterday: 64 °F (at 2:20 PM)
Minimum temperature yesterday: 48 °F (at 3:50 AM)
Average temperature yesterday: 56 °F

Past Weeks' High & Low Weather Summary

 TemperatureHumidityPressure
High84 °F (Aug 10, 3:20 PM)100% (Aug 6, 2:50 AM)30.09 "Hg (Aug 6, 2:50 AM)
Low48 °F (Aug 20, 3:50 AM)31% (Aug 12, 5:20 PM)29.62 "Hg (Aug 13, 6:50 PM)
Average64 °F71%29.88 "Hg
* Reported Aug 6 1:20 AM — Aug 21 1:50 AM, Dessau-Rosslau, Weather by CustomWeather, © 2014

Note: Actual official high and low records may vary slightly from our data, if they occured in-between our weather recording intervals... More about our weather records

Advertising

Dessau-Rosslau weather history for previous 24 hours

 ConditionsComfort  
Time TempWeatherWind HumidityBarometerVisibility
1:50 AM
Aug 21
50 °FClear.5 mph88%30.01 "Hg10 mi
1:20 AM50 °FClear.5 mph88%30.01 "Hg10 mi
12:50 AM50 °FClear.2 mph88%30.01 "Hg10 mi
12:20 AM50 °FClear.2 mph88%30.01 "Hg10 mi
11:50 PM
Aug 20
52 °FClear.3 mph82%30.01 "Hg10 mi
11:20 PM52 °FClear.3 mph82%30.01 "Hg10 mi
10:50 PM54 °FClear.6 mph77%30.01 "Hg10 mi
10:20 PM55 °FClear.9 mph72%30.01 "Hg10 mi
9:50 PM55 °FClear.12 mph67%30.01 "Hg10 mi
9:20 PM55 °FSunny.6 mph67%30.01 "Hg10 mi
8:50 PM57 °FScattered clouds.3 mph59%29.98 "HgN/A
8:20 PM57 °FScattered clouds.7 mph63%29.98 "HgN/A
7:50 PM59 °FScattered clouds.7 mph59%29.98 "HgN/A
7:20 PM61 °FScattered clouds.7 mph55%29.98 "HgN/A
6:50 PM63 °FSunny.9 mph49%29.98 "Hg10 mi
6:20 PM63 °FSunny.10 mph49%29.98 "Hg10 mi
5:50 PM64 °FSunny.12 mph49%29.98 "Hg10 mi
5:20 PM64 °FScattered clouds.10 mph52%29.98 "HgN/A
4:50 PM64 °FScattered clouds.15 mph46%29.98 "HgN/A
4:20 PM63 °FScattered clouds.13 mph52%29.98 "HgN/A
3:50 PM64 °FScattered clouds.13 mph52%29.98 "HgN/A
3:20 PM63 °FScattered clouds.13 mph52%29.98 "HgN/A
2:50 PM63 °FScattered clouds.16 mph52%29.98 "HgN/A
2:20 PM64 °FScattered clouds.14 mph49%29.98 "HgN/A
1:50 PM61 °FScattered clouds.16 mph59%29.98 "HgN/A
1:20 PM61 °FScattered clouds.15 mph59%30.01 "HgN/A
12:50 PM61 °FScattered clouds.13 mph55%30.01 "HgN/A
12:20 PM63 °FBroken clouds.14 mph59%30.01 "HgN/A
11:50 AM61 °FPartly sunny.15 mph63%30.01 "HgN/A
11:20 AM59 °FPartly sunny.17 mph63%30.01 "HgN/A
10:50 AM59 °FPartly sunny.16 mph68%30.01 "HgN/A
10:20 AM57 °FScattered clouds.18 mph67%29.98 "HgN/A
9:50 AM57 °FScattered clouds.18 mph67%29.98 "HgN/A
9:20 AM55 °FPassing clouds.18 mph72%29.98 "HgN/A
8:50 AM55 °FSunny.18 mph72%29.98 "Hg10 mi
8:20 AM54 °FSunny.17 mph77%29.98 "Hg10 mi
7:50 AM52 °FSunny.16 mph82%29.95 "Hg10 mi
7:20 AM50 °FSunny.14 mph88%29.95 "Hg10 mi
6:50 AM48 °FClear.12 mph94%29.95 "Hg10 mi
6:20 AM48 °FClear.14 mph87%29.95 "Hg10 mi
5:50 AM48 °FClear.12 mph94%29.95 "Hg10 mi
5:20 AM48 °FClear.10 mph94%29.95 "Hg10 mi
4:50 AM48 °FClear.9 mph94%29.95 "Hg10 mi
4:20 AM48 °FClear.12 mph94%29.92 "Hg10 mi
3:50 AM48 °FClear.9 mph94%29.92 "Hg10 mi
3:20 AM50 °FClear.12 mph88%29.92 "Hg10 mi
Weather by CustomWeather, © 2014

See weather overviewHow to use our weather pages